Regional Weather Roundup
Issued by NWS

Home | Current Version | Previous Version | Graphics & Text | Print | Product List | Glossary On
Versions: 1 2 3 4 5 6 7 8 9 10 11 12 13 14 15 16 17 18 19 20 21 22 23 24 25 26 27 28 29 30 31 32 33 34 35 36 37 38 39 40 41 42 43 44 45 46 47 48 49 50
000
ASUS43 KOAX 271510
RWRNE

WEATHER ROUNDUP FOR NEBRASKA
NATIONAL WEATHER SERVICE OMAHA NE
1000 AM CDT WED AUG 27 2014

NOTES: SATELLITE DATA IS BEING USED TO AUGMENT CLOUD COVER ABOVE
       12000 FEET.
       "FAIR" INDICATES FEW OR NO CLOUDS BELOW 12,000 FEET WITH NO
       SIGNIFICANT WEATHER AND/OR OBSTRUCTIONS TO VISIBILITY.

  * THESE STATIONS DO NOT REPORT WEATHER SUCH AS RAIN...SNOW OR FOG.

NEZ001>004-019>022-054>056-271600-
NEBRASKA PANHANDLE

CITY           SKY/WX    TMP DP  RH WIND       PRES   REMARKS
SCOTTSBLUFF    CLOUDY    67  64  90 E7        30.13F
ALLIANCE       PTSUNNY   66  63  90 SE8       30.14S
CHADRON        MOSUNNY   67  60  78 E6        30.13S
KIMBALL        FOG       62  61  99 E3        30.15S VSB 1/2
SIDNEY         MOSUNNY   67  60  78 SE14      30.16S
$$

NEZ057>060-069>072-079>082-271600-
SOUTHWEST NEBRASKA

CITY           SKY/WX    TMP DP  RH WIND       PRES   REMARKS
NORTH PLATTE   CLOUDY    67  65  93 SE6       30.15R
IMPERIAL       PTSUNNY   68  63  84 S13       30.13S
LEXINGTON      CLOUDY    70  67  91 N3        30.13S
MCCOOK         CLOUDY    69  67  93 SE7       30.14R
OGALLALA       CLOUDY    68  63  82 SE7       30.14S
$$

NEZ005>010-023>029-035>040-094-271600-
NORTH CENTRAL NEBRASKA

CITY           SKY/WX    TMP DP  RH WIND       PRES   REMARKS
VALENTINE      CLOUDY    70  67  90 E6        30.11F
AINSWORTH      PTSUNNY   67  65  94 E9        30.13R
BROKEN BOW     CLOUDY    71  67  87 E3        30.13S
O`NEILL        CLOUDY    69  67  94 CALM      30.13F
ORD            CLOUDY    69  66  90 NE6       30.12R
THEDFORD       CLOUDY    71  67  87 SE9       30.15R
$$

NEZ041-046>049-061>064-073>077-083>087-271600-
SOUTH CENTRAL NEBRASKA

CITY           SKY/WX    TMP DP  RH WIND       PRES   REMARKS
GRAND ISLAND   CLOUDY    70  67  90 CALM      30.15R
AURORA         CLOUDY    70  69  99 E6        30.15R
HASTINGS       CLOUDY    71  66  84 SE5       30.13R
HEBRON         PTSUNNY   74  69  82 SE3       30.11R
HOLDREGE       CLOUDY    70  67  89 CALM      30.12S
KEARNEY *      CLOUDY    70  66  88 N6        30.14R
YORK           CLOUDY    72 N/A N/A E5        30.14R
$$

NEZ011>018-030>034-042>045-271600-
NORTHEAST NEBRASKA

CITY           SKY/WX    TMP DP  RH WIND       PRES   REMARKS
NORFOLK        CLOUDY    67  65  93 NE8       30.13F
ALBION         CLOUDY    68  65  92 E8        30.12S
BLAIR          TSTM      68  66  93 NE9       30.15S
FREMONT        CLOUDY    69  67  95 CALM      30.15R
TEKAMAH        LGT RAIN  67  66  97 SE3       30.16F
WAYNE          RAIN      64  64  98 N5        30.19S
$$

NEZ050>053-065>068-078-088>093-271600-
SOUTHEAST NEBRASKA

CITY           SKY/WX    TMP DP  RH WIND       PRES   REMARKS
LINCOLN        MOSUNNY   72  69  90 E7        30.14R
OMAHA EPPLEY   TSTM      68  66  93 NE9       30.16R FOG
BEATRICE       LGT RAIN  74  72  93 S8        30.12R
FALLS CITY     CLOUDY    71  69  93 SE10      30.13R
NEBRASKA CITY  CLOUDY    70  70 100 E7        30.14S
PLATTSMOUTH    CLOUDY    69  67  93 E5        30.15R
$$

NEZ044-045-051>053-067-271600-
OMAHA AREA

CITY           SKY/WX    TMP DP  RH WIND       PRES   REMARKS
OMAHA EPPLEY   TSTM      68  66  93 NE9       30.16R FOG
BLAIR          TSTM      68  66  93 NE9       30.15S
FREMONT        CLOUDY    69  67  95 CALM      30.15R
MILLARD        CLOUDY    69  67  93 E5        30.16R
OFFUTT AFB     TSTM      68  68 100 E8        30.15R FOG
PLATTSMOUTH    CLOUDY    69  67  93 E5        30.15R
WAHOO          DRIZZLE   68  65  91 E5        30.15R
$$


USA.gov is the U.S. government's official web portal to all federal, state and local government web resources and services.